Location: Dead Woman Crossing
(43.5369°N, 106.3228°W)
Time: 23:02:51
(UTC+00:00)

QB50P2 - Pass Details

Date: 27 June 2022
Orbit: 590 x 605 km, 97.9° (Epoch: 16 August)

Event Time Altitude Azimuth Distance (km) Brightness Sun altitude
Rises 09:02:36 0° 6° (N) 2,856 ? -18.2°
Reaches altitude 10° 09:04:51 10° 359° (N) 1,951 ? -18.0°
Maximum altitude 09:08:50 42° 289° (WNW) 871 ? -17.7°
Enters shadow 09:10:17 31° 244° (WSW) 1,075 ? -17.5°
